Tracking 28052 objects as of 25-Sep-2023
HD Live streaming from Space Station
objects crossing your sky now

IRIDIUM 44

Track IRIDIUM 44 now!
10-day predictions
IRIDIUM 44 is classified as:


NORAD ID: 25078
Int'l Code: 1997-077B
Perigee: 768.1 km
Apogee: 769.9 km
Inclination: 86.4 °
Period: 100.1 minutes
Semi major axis: 7139 km
RCS: 3.743 m2 (large)
Launch date: December 8, 1997
Source: United States (US)
Launch site: Taiyaun Space Center, China (TSC)
Your satellite tracking list
Your tracking list is empty




NASA's NSSDC Master Catalog

Two Line Element Set (TLE):
1 25078U 97077B   23268.34193641  .00000797  00000-0  25224-3 0  9995
2 25078  86.3943 127.3889 0001252  22.3191 337.8062 14.38985077352970
Source of the keplerian elements: AFSPC